Decatur, IL

5:22 AM CST on November 21, 2017 (GMT -0600)
Decatur

Weather History for KDEC - April, 2012

Change the Weather History Date:

Sunday, April 1, 2012

  Actual Average Record
Temperature  
Mean Temperature 71 °F 48 °F  
Max Temperature 86 °F 58 °F 86 °F (2012)
Min Temperature 55 °F 37 °F 28 °F (2002)
Degree Days  
Heating Degree Days 0 18  
Month to date heating degree days 0 18  
Since 1 July heating degree days 3882 5002  
Cooling Degree Days 6 0  
Month to date cooling degree days 6 0  
Year to date cooling degree days 45 1  
Growing Degree Days 20 (Base 50)    
Moisture  
Dew Point 57 °F    
Average Humidity 72    
Maximum Humidity 100    
Minimum Humidity 43    
Precipitation  
Precipitation 0.01 in 0.10 in 0.11 in (2014)
Month to date precipitation 0.01 0.10  
Year to date precipitation 4.04 6.46  
Sea Level Pressure  
Sea Level Pressure 29.71 in    
Wind  
Wind Speed 9 mph (SSE)    
Max Wind Speed 31 mph    
Max Gust Speed 41 mph    
Visibility 8 miles    
Events Rain , Thunderstorm    
T = Trace of Precipitation, MM = Missing Value Source: NWS Daily Summary

Daily Weather History Graph

Daily Weather History Graph

Search for Another Location

Airport or City:

Trip Planner

Search our weather history database for the weather conditions in past years. The results will help you decide how hot, cold, wet, or windy it might be!

Date:

Astronomy

Apr. 01, 2012 Rise Set
Actual Time 6:38 AM CDT 7:20 PM CDT
Civil Twilight 6:11 AM CDT 7:47 PM CDT
Nautical Twilight 5:39 AM CDT 8:19 PM CDT
Astronomical Twilight 5:06 AM CDT 8:53 PM CDT
Moon 1:51 PM CDT (4/1) 3:14 AM CDT (4/1)
Length of Visible Light 13h 35m
Length of Day
12h 41m
Waxing Gibbous, 69% of the Moon is Illuminated
Apr 1
Waxing Gibbous
Apr 6
Full
Apr 13
Last Quarter
Apr 21
New
Apr 29
First Quarter

Hourly Weather History & Observations

Time (CDT) Temp. Heat Index Dew Point Humidity Pressure Visibility Wind Dir Wind Speed Gust Speed Precip Events Conditions
12:54 AM 55.0 °F - 51.1 °F 86% 29.79 in 10.0 mi SSE 5.8 mph - N/A   Clear
1:54 AM 57.0 °F - 52.0 °F 83% 29.78 in 10.0 mi SSE 4.6 mph - N/A   Partly Cloudy
2:54 AM 57.2 °F - 51.8 °F 82% 29.77 in 9.0 mi ESE 3.5 mph - N/A Thunderstorm Mostly Cloudy
3:10 AM 60.8 °F - 51.8 °F 72% 29.81 in 8.0 mi South 9.2 mph 41.4 mph 0.00 in Rain , Thunderstorm Light Rain
3:37 AM 55.4 °F - 53.6 °F 94% 29.78 in 9.0 mi ENE 11.5 mph - 0.01 in Rain Light Rain
3:54 AM 55.9 °F - 53.1 °F 90% 29.78 in 8.0 mi East 10.4 mph - 0.01 in Thunderstorm Thunderstorm
4:12 AM 57.2 °F - 53.6 °F 88% 29.78 in 8.0 mi ESE 9.2 mph - N/A   Mostly Cloudy
4:26 AM 55.4 °F - 53.6 °F 94% 29.78 in 7.0 mi East 8.1 mph - N/A Thunderstorm Partly Cloudy
4:41 AM 55.4 °F - 53.6 °F 94% 29.78 in 6.0 mi East 11.5 mph - N/A   Mostly Cloudy
4:54 AM 55.4 °F - 53.6 °F 94% 29.78 in 6.0 mi East 11.5 mph - N/A   Mostly Cloudy
5:54 AM 55.0 °F - 53.1 °F 93% 29.76 in 5.0 mi East 13.8 mph - N/A   Clear
6:54 AM 55.0 °F - 53.1 °F 93% 29.75 in 4.0 mi SSE 11.5 mph - N/A   Clear
7:54 AM 57.0 °F - 54.0 °F 89% 29.75 in 5.0 mi SSE 10.4 mph - N/A   Clear
8:54 AM 62.6 °F - 55.4 °F 77% 29.74 in 7.0 mi South 8.1 mph - N/A   Clear
9:54 AM 69.1 °F - 59.0 °F 70% 29.72 in 10.0 mi SSW 11.5 mph - N/A   Clear
10:54 AM 75.0 °F - 61.0 °F 62% 29.71 in 10.0 mi SW 10.4 mph - N/A   Clear
11:54 AM 80.6 °F 81.8 °F 62.6 °F 54% 29.69 in 10.0 mi West 8.1 mph - N/A   Clear
12:54 PM 82.9 °F 83.7 °F 62.1 °F 49% 29.66 in 10.0 mi West 11.5 mph - N/A   Partly Cloudy
1:54 PM 84.0 °F 84.5 °F 62.1 °F 47% 29.64 in 10.0 mi West 10.4 mph 19.6 mph N/A   Clear
2:54 PM 84.9 °F 85.0 °F 61.0 °F 44% 29.62 in 10.0 mi West 9.2 mph 20.7 mph N/A   Clear
3:54 PM 84.9 °F 84.4 °F 59.0 °F 41% 29.60 in 10.0 mi WSW 11.5 mph - N/A   Clear
4:54 PM 84.0 °F 83.8 °F 59.0 °F 43% 29.60 in 10.0 mi WSW 12.7 mph - N/A   Clear
5:54 PM 82.9 °F 82.8 °F 59.0 °F 44% 29.60 in 10.0 mi WNW 6.9 mph - N/A   Partly Cloudy
6:54 PM 80.1 °F 80.9 °F 60.1 °F 50% 29.61 in 10.0 mi SSW 6.9 mph - N/A   Clear
7:54 PM 75.0 °F - 57.0 °F 53% 29.62 in 10.0 mi SSW 5.8 mph - N/A   Clear
8:54 PM 73.0 °F - 57.9 °F 59% 29.63 in 10.0 mi Calm Calm - N/A   Clear
9:54 PM 66.9 °F - 57.9 °F 73% 29.64 in 10.0 mi South 6.9 mph - N/A   Clear
10:54 PM 63.0 °F - 62.1 °F 97% 29.66 in 6.0 mi ENE 11.5 mph - N/A   Clear
11:54 PM 61.0 °F - 59.0 °F 93% 29.67 in 6.0 mi ENE 11.5 mph - N/A   Clear